| time (UTC) | temp C | wind direction | speed KPH | gust KPH | rain 1hr cm | rain 24hr cm | rain mn cm | humidity % | barometer mb |
| 20260505184553 | 7 | 281 | 6.4 | 27.4 | 0.00 | 0.00 | 0.00 | 44 | 1012.1 |
| 20260505184054 | 7 | 297 | 12.9 | 27.4 | 0.00 | 0.00 | 0.00 | 44 | 1012.0 |
| 20260505183555 | 7 | 270 | 14.5 | 25.7 | 0.00 | 0.00 | 0.00 | 43 | 1012.0 |
| 20260505183058 | 7 | 328 | 9.7 | 25.7 | 0.00 | 0.00 | 0.00 | 46 | 1012.0 |
| 20260505182550 | 7 | 291 | 9.7 | 25.7 | 0.00 | 0.00 | 0.00 | 46 | 1012.0 |
| 20260505182050 | 7 | 303 | 8.0 | 24.1 | 0.00 | 0.00 | 0.00 | 45 | 1012.0 |
| 20260505181550 | 7 | 337 | 11.3 | 22.5 | 0.00 | 0.00 | 0.00 | 45 | 1012.0 |
| 20260505181049 | 7 | 10 | 8.0 | 22.5 | 0.00 | 0.00 | 0.00 | 45 | 1012.0 |
| 20260505180549 | 7 | 250 | 9.7 | 22.5 | 0.00 | 0.00 | 0.00 | 44 | 1011.9 |
| 20260505180051 | 7 | 300 | 9.7 | 27.4 | 0.00 | 0.00 | 0.00 | 44 | 1011.9 |
| 20260505175548 | 7 | 328 | 9.7 | 27.4 | 0.00 | 0.00 | 0.00 | 46 | 1011.9 |
| 20260505175048 | 7 | 280 | 12.9 | 25.7 | 0.00 | 0.00 | 0.00 | 46 | 1011.8 |
| 20260505174648 | 7 | 269 | 12.9 | 25.7 | 0.00 | 0.00 | 0.00 | 46 | 1011.8 |
| 20260505174048 | 7 | 262 | 12.9 | 22.5 | 0.00 | 0.00 | 0.00 | 44 | 1011.8 |
| 20260505173547 | 7 | 98 | 9.7 | 29.0 | 0.00 | 0.00 | 0.00 | 44 | 1011.9 |
| 20260505173050 | 7 | 6 | 6.4 | 33.8 | 0.00 | 0.00 | 0.00 | 46 | 1011.9 |
| 20260505172550 | 7 | 350 | 11.3 | 33.8 | 0.00 | 0.00 | 0.00 | 44 | 1011.8 |
| 20260505172047 | 7 | 250 | 14.5 | 30.6 | 0.00 | 0.00 | 0.00 | 43 | 1011.7 |
| 20260505171547 | 7 | 290 | 14.5 | 24.1 | 0.00 | 0.00 | 0.00 | 44 | 1012.0 |
| 20260505171049 | 7 | 41 | 6.4 | 22.5 | 0.00 | 0.00 | 0.00 | 46 | 1012.0 |
| 20260505170548 | 6 | 357 | 8.0 | 24.1 | 0.00 | 0.00 | 0.00 | 46 | 1012.0 |
| 20260505170046 | 7 | 290 | 9.7 | 24.1 | 0.00 | 0.00 | 0.00 | 44 | 1012.0 |
| 20260505165545 | 7 | 274 | 6.4 | 30.6 | 0.00 | 0.00 | 0.00 | 43 | 1012.0 |
| 20260505165045 | 7 | 292 | 9.7 | 30.6 | 0.00 | 0.00 | 0.00 | 42 | 1012.0 |
| 20260505164557 | 7 | 326 | 11.3 | 20.9 | 0.00 | 0.00 | 0.00 | 43 | 1011.8 |
| 20260505164043 | 7 | 339 | 6.4 | 19.3 | 0.00 | 0.00 | 0.00 | 45 | 1011.9 |
| 20260505163542 | 7 | 317 | 4.8 | 19.3 | 0.00 | 0.00 | 0.00 | 47 | 1011.9 |
| 20260505163048 | 6 | 20 | 8.0 | 22.5 | 0.00 | 0.00 | 0.00 | 47 | 1011.9 |
| 20260505162545 | 7 | 12 | 11.3 | 22.5 | 0.00 | 0.00 | 0.00 | 45 | 1011.9 |
| 20260505162040 | 6 | 47 | 9.7 | 20.9 | 0.00 | 0.00 | 0.00 | 47 | 1011.9 |
| 20260505161543 | 6 | 266 | 8.0 | 22.5 | 0.00 | 0.00 | 0.00 | 46 | 1011.8 |
| 20260505161039 | 6 | 253 | 11.3 | 22.5 | 0.00 | 0.00 | 0.00 | 46 | 1011.9 |
| 20260505160539 | 6 | 56 | 11.3 | 19.3 | 0.00 | 0.00 | 0.00 | 46 | 1012.0 |
| 20260505153048 | 6 | 296 | 8.0 | 22.5 | 0.00 | 0.00 | 0.00 | 47 | 1011.8 |
| 20260505152535 | 5 | 332 | 8.0 | 22.5 | 0.00 | 0.00 | 0.00 | 48 | 1011.8 |
| 20260505152033 | 5 | 29 | 8.0 | 20.9 | 0.00 | 0.00 | 0.00 | 49 | 1011.8 |
| 20260505151541 | 6 | 336 | 9.7 | 20.9 | 0.00 | 0.00 | 0.00 | 48 | 1011.8 |
| 20260505151032 | 6 | 73 | 4.8 | 14.5 | 0.00 | 0.00 | 0.00 | 49 | 1011.7 |
| 20260505150532 | 6 | 309 | 8.0 | 14.5 | 0.00 | 0.00 | 0.00 | 48 | 1011.7 |
| 20260505140524 | 5 | 16 | 3.2 | 12.9 | 0.00 | 0.00 | 0.00 | 52 | 1011.3 |
| 20260505125016 | 2 | 60 | 8.0 | 16.1 | 0.00 | 0.00 | 0.00 | 54 | 1010.5 |
| 20260505124515 | 2 | 347 | 8.0 | 14.5 | 0.00 | 0.00 | 0.00 | 53 | 1010.5 |
| 20260505124017 | 2 | 51 | 8.0 | 19.3 | 0.00 | 0.00 | 0.00 | 54 | 1010.5 |
| 20260505123516 | 2 | 49 | 8.0 | 19.3 | 0.00 | 0.00 | 0.00 | 55 | 1010.4 |
| 20260505123012 | 2 | 352 | 6.4 | 16.1 | 0.00 | 0.00 | 0.00 | 55 | 1010.4 |
| 20260505122511 | 2 | 34 | 8.0 | 16.1 | 0.00 | 0.00 | 0.00 | 56 | 1010.3 |
| 20260505122013 | 2 | 8 | 4.8 | 11.3 | 0.00 | 0.00 | 0.00 | 56 | 1010.3 |
| 20260505121510 | 2 | 13 | 3.2 | 12.9 | 0.00 | 0.00 | 0.00 | 57 | 1010.1 |
| 20260505121010 | 2 | 60 | 1.6 | 14.5 | 0.00 | 0.00 | 0.00 | 58 | 1010.1 |
| 20260505120507 | 2 | 9 | 4.8 | 16.1 | 0.00 | 0.00 | 0.00 | 58 | 1010.0 |
| 20260505120007 | 2 | 349 | 4.8 | 12.9 | 0.00 | 0.00 | 0.00 | 60 | 1010.0 |
| 20260505115505 | 2 | 360 | 3.2 | 12.9 | 0.00 | 0.00 | 0.00 | 61 | 1009.9 |
| 20260505115004 | 1 | 13 | 3.2 | 9.7 | 0.00 | 0.00 | 0.00 | 64 | 1009.8 |
| 20260505114504 | 1 | 33 | 0.0 | 4.8 | 0.00 | 0.00 | 0.00 | 66 | 1009.9 |
| 20260505114004 | 1 | 42 | 1.6 | 6.4 | 0.00 | 0.00 | 0.00 | 67 | 1009.8 |
| 20260505113503 | 1 | 6 | 1.6 | 9.7 | 0.00 | 0.00 | 0.00 | 68 | 1009.7 |
| 20260505113001 | 1 | 351 | 3.2 | 9.7 | 0.00 | 0.00 | 0.00 | 68 | 1009.6 |
| 20260505112502 | 1 | 44 | 3.2 | 9.7 | 0.00 | 0.00 | 0.00 | 70 | 1009.5 |
| 20260505112002 | 1 | 352 | 1.6 | 11.3 | 0.00 | 0.00 | 0.00 | 71 | 1009.5 |
| 20260505111600 | 1 | 309 | 4.8 | 11.3 | 0.00 | 0.00 | 0.00 | 71 | 1009.4 |
| 20260505111102 | 1 | 309 | 1.6 | 8.0 | 0.00 | 0.00 | 0.00 | 72 | 1009.4 |
| 20260505110558 | 1 | 353 | 1.6 | 6.4 | 0.00 | 0.00 | 0.00 | 72 | 1009.3 |
| 20260505110105 | 1 | 13 | 1.6 | 8.0 | 0.00 | 0.00 | 0.00 | 72 | 1009.3 |
| 20260505102007 | 2 | 359 | 4.8 | 11.3 | 0.00 | 0.00 | 0.00 | 71 | 1009.1 |
| 20260505101508 | 2 | 353 | 0.0 | 14.5 | 0.00 | 0.00 | 0.00 | 71 | 1009.1 |
| 20260505101005 | 2 | 357 | 4.8 | 14.5 | 0.00 | 0.00 | 0.00 | 71 | 1009.1 |
| 20260505100506 | 2 | 13 | 4.8 | 12.9 | 0.00 | 0.00 | 0.00 | 70 | 1009.0 |
| 20260505100008 | 2 | 9 | 6.4 | 12.9 | 0.00 | 0.00 | 0.00 | 70 | 1009.0 |
| 20260505095505 | 2 | 29 | 1.6 | 14.5 | 0.00 | 0.00 | 0.00 | 70 | 1009.1 |
| 20260505095002 | 2 | 5 | 6.4 | 14.5 | 0.00 | 0.00 | 0.00 | 70 | 1009.0 |
| 20260505094607 | 2 | 333 | 1.6 | 9.7 | 0.00 | 0.00 | 0.00 | 70 | 1009.0 |
| 20260505094059 | 2 | 33 | 4.8 | 11.3 | 0.00 | 0.00 | 0.00 | 70 | 1008.9 |
| 20260505093558 | 2 | 338 | 3.2 | 11.3 | 0.00 | 0.00 | 0.00 | 70 | 1008.9 |
| 20260505093057 | 2 | 27 | 1.6 | 12.9 | 0.00 | 0.00 | 0.00 | 69 | 1008.8 |
| 20260505092556 | 2 | 319 | 3.2 | 12.9 | 0.00 | 0.00 | 0.00 | 69 | 1008.7 |
| 20260505092050 | 3 | 358 | 3.2 | 12.9 | 0.00 | 0.00 | 0.00 | 69 | 1008.7 |
| 20260505091557 | 3 | 354 | 6.4 | 12.9 | 0.00 | 0.00 | 0.00 | 69 | 1008.7 |
| 20260505091049 | 3 | 349 | 3.2 | 11.3 | 0.00 | 0.00 | 0.00 | 68 | 1008.7 |
| 20260505090548 | 3 | 324 | 1.6 | 19.3 | 0.00 | 0.00 | 0.00 | 68 | 1008.6 |
| 20260505090056 | 3 | 12 | 3.2 | 19.3 | 0.00 | 0.00 | 0.00 | 67 | 1008.4 |
| 20260505085547 | 3 | 332 | 4.8 | 19.3 | 0.00 | 0.00 | 0.00 | 67 | 1008.4 |
| 20260505085047 | 3 | 336 | 4.8 | 19.3 | 0.00 | 0.00 | 0.00 | 67 | 1008.4 |
| 20260505084549 | 3 | 343 | 6.4 | 16.1 | 0.00 | 0.00 | 0.00 | 67 | 1008.3 |
| 20260505084044 | 3 | 343 | 3.2 | 11.3 | 0.00 | 0.00 | 0.00 | 67 | 1008.3 |
| 20260505083544 | 3 | 343 | 4.8 | 14.5 | 0.00 | 0.00 | 0.00 | 67 | 1008.2 |
| 20260505083048 | 3 | 345 | 3.2 | 12.9 | 0.00 | 0.00 | 0.00 | 67 | 1008.1 |
| 20260505082543 | 3 | 309 | 4.8 | 11.3 | 0.00 | 0.00 | 0.00 | 67 | 1008.0 |
| 20260505082044 | 3 | 345 | 4.8 | 11.3 | 0.00 | 0.00 | 0.00 | 67 | 1008.0 |
| 20260505081555 | 3 | 345 | 3.2 | 11.3 | 0.00 | 0.00 | 0.00 | 67 | 1008.0 |
| 20260505081040 | 3 | 349 | 0.0 | 11.3 | 0.00 | 0.00 | 0.00 | 66 | 1007.9 |
| 20260505080541 | 3 | 353 | 4.8 | 14.5 | 0.00 | 0.00 | 0.00 | 66 | 1007.9 |
| 20260505080045 | 3 | 345 | 6.4 | 14.5 | 0.00 | 0.00 | 0.00 | 66 | 1007.9 |
| 20260505075537 | 3 | 309 | 3.2 | 12.9 | 0.00 | 0.00 | 0.00 | 66 | 1007.9 |
| 20260505075111 | 3 | 292 | 4.8 | 12.9 | 0.00 | 0.00 | 0.00 | 66 | 1007.9 |
| 20260505074547 | 3 | 313 | 4.8 | 14.5 | 0.00 | 0.00 | 0.00 | 66 | 1007.8 |
| 20260505074036 | 3 | 260 | 3.2 | 14.5 | 0.00 | 0.00 | 0.00 | 66 | 1007.8 |
| 20260505073535 | 3 | 307 | 4.8 | 14.5 | 0.00 | 0.00 | 0.00 | 66 | 1007.8 |
| 20260505073034 | 3 | 301 | 1.6 | 8.0 | 0.00 | 0.00 | 0.00 | 66 | 1007.8 |
| 20260505072532 | 3 | 259 | 1.6 | 14.5 | 0.00 | 0.00 | 0.00 | 65 | 1007.9 |
| 20260505072032 | 3 | 338 | 1.6 | 14.5 | 0.00 | 0.00 | 0.00 | 64 | 1007.9 |
| 20260505071531 | 3 | 336 | 3.2 | 9.7 | 0.00 | 0.00 | 0.00 | 64 | 1007.9 |
| 20260505071031 | 3 | 299 | 3.2 | 11.3 | 0.00 | 0.00 | 0.00 | 64 | 1007.9 |
| 20260505070531 | 3 | 314 | 1.6 | 11.3 | 0.00 | 0.00 | 0.00 | 63 | 1007.7 |
| 20260505070031 | 3 | 335 | 1.6 | 11.3 | 0.00 | 0.00 | 0.00 | 63 | 1007.8 |
| 20260505065532 | 3 | 323 | 3.2 | 12.9 | 0.00 | 0.00 | 0.00 | 63 | 1007.7 |
| 20260505065030 | 3 | 307 | 3.2 | 12.9 | 0.00 | 0.00 | 0.00 | 64 | 1007.8 |
| 20260505064530 | 3 | 287 | 4.8 | 14.5 | 0.00 | 0.00 | 0.00 | 64 | 1007.8 |
| 20260505064029 | 3 | 296 | 6.4 | 14.5 | 0.00 | 0.00 | 0.00 | 64 | 1007.9 |
| 20260505063527 | 3 | 294 | 3.2 | 12.9 | 0.00 | 0.00 | 0.00 | 63 | 1007.9 |
| 20260505063034 | 3 | 290 | 1.6 | 8.0 | 0.00 | 0.00 | 0.00 | 63 | 1007.7 |
| 20260505062526 | 3 | 263 | 1.6 | 11.3 | 0.00 | 0.00 | 0.00 | 63 | 1007.6 |
| 20260505062026 | 3 | 311 | 3.2 | 11.3 | 0.00 | 0.00 | 0.00 | 63 | 1007.7 |
| 20260505061530 | 3 | 326 | 1.6 | 6.4 | 0.00 | 0.00 | 0.00 | 62 | 1007.8 |
| 20260505061023 | 3 | 309 | 1.6 | 8.0 | 0.00 | 0.00 | 0.00 | 61 | 1007.8 |
| 20260505060522 | 3 | 298 | 0.0 | 8.0 | 0.00 | 0.00 | 0.00 | 60 | 1007.7 |
| 20260505060022 | 4 | 341 | 3.2 | 8.0 | 0.00 | 0.00 | 0.00 | 60 | 1007.7 |
| 20260505055520 | 4 | 1 | 1.6 | 11.3 | 0.00 | 0.00 | 0.00 | 59 | 1007.6 |
| 20260505055020 | 4 | 42 | 4.8 | 11.3 | 0.00 | 0.00 | 0.00 | 59 | 1007.7 |
| 20260505054523 | 4 | 349 | 3.2 | 11.3 | 0.00 | 0.00 | 0.00 | 59 | 1007.6 |
| 20260505054017 | 4 | 355 | 3.2 | 12.9 | 0.00 | 0.00 | 0.00 | 58 | 1007.6 |
| 20260505053517 | 4 | 346 | 1.6 | 12.9 | 0.00 | 0.00 | 0.00 | 58 | 1007.5 |
| 20260505053015 | 4 | 18 | 4.8 | 11.3 | 0.00 | 0.00 | 0.00 | 58 | 1007.5 |
| 20260505052514 | 4 | 336 | 1.6 | 8.0 | 0.00 | 0.00 | 0.00 | 58 | 1007.4 |
| 20260505052012 | 5 | 340 | 0.0 | 9.7 | 0.00 | 0.00 | 0.00 | 57 | 1007.3 |
| 20260505051512 | 5 | 328 | 1.6 | 9.7 | 0.00 | 0.00 | 0.00 | 56 | 1007.2 |
| 20260505051010 | 5 | 300 | 3.2 | 9.7 | 0.00 | 0.00 | 0.00 | 56 | 1007.3 |
| 20260505050509 | 5 | 302 | 1.6 | 12.9 | 0.00 | 0.00 | 0.00 | 56 | 1007.3 |
| 20260505041503 | 6 | 343 | 4.8 | 16.1 | 0.00 | 0.00 | 0.00 | 53 | 1006.9 |
| 20260505041001 | 5 | 347 | 6.4 | 14.5 | 0.00 | 0.00 | 0.00 | 54 | 1007.0 |
| 20260505040501 | 5 | 16 | 4.8 | 12.9 | 0.00 | 0.00 | 0.00 | 55 | 1007.0 |
| 20260505035559 | 6 | 330 | 3.2 | 12.9 | 0.00 | 0.00 | 0.00 | 57 | 1006.9 |
| 20260505035100 | 6 | 27 | 3.2 | 9.7 | 0.00 | 0.00 | 0.00 | 57 | 1006.9 |
| 20260505034558 | 6 | 357 | 4.8 | 9.7 | 0.00 | 0.00 | 0.00 | 56 | 1006.8 |
| 20260505034056 | 6 | 345 | 3.2 | 9.7 | 0.00 | 0.00 | 0.00 | 56 | 1006.8 |
| 20260505033555 | 6 | 328 | 4.8 | 14.5 | 0.00 | 0.00 | 0.00 | 56 | 1006.8 |
| 20260505033055 | 6 | 320 | 3.2 | 14.5 | 0.00 | 0.00 | 0.00 | 56 | 1006.7 |
| 20260505032553 | 6 | 309 | 1.6 | 9.7 | 0.00 | 0.00 | 0.00 | 55 | 1006.7 |
| 20260505032052 | 6 | 349 | 1.6 | 16.1 | 0.00 | 0.00 | 0.00 | 55 | 1006.7 |
| 20260505031552 | 6 | 11 | 1.6 | 16.1 | 0.00 | 0.00 | 0.00 | 55 | 1006.7 |
| 20260505031051 | 6 | 300 | 1.6 | 11.3 | 0.00 | 0.00 | 0.00 | 55 | 1006.6 |
| 20260505030554 | 6 | 26 | 1.6 | 11.3 | 0.00 | 0.00 | 0.00 | 55 | 1006.6 |
| 20260505030051 | 6 | 316 | 1.6 | 11.3 | 0.00 | 0.00 | 0.00 | 54 | 1006.6 |
| 20260505025550 | 6 | 320 | 3.2 | 11.3 | 0.00 | 0.00 | 0.00 | 54 | 1006.5 |
| 20260505025049 | 6 | 295 | 1.6 | 8.0 | 0.00 | 0.00 | 0.00 | 53 | 1006.4 |
| 20260505024605 | 6 | 311 | 1.6 | 8.0 | 0.00 | 0.00 | 0.00 | 53 | 1006.4 |
| 20260505024052 | 6 | 299 | 1.6 | 9.7 | 0.00 | 0.00 | 0.00 | 52 | 1006.2 |
| 20260505023546 | 6 | 328 | 3.2 | 11.3 | 0.00 | 0.00 | 0.00 | 51 | 1006.2 |
| 20260505023045 | 6 | 307 | 3.2 | 11.3 | 0.00 | 0.00 | 0.00 | 51 | 1006.2 |
| 20260505022545 | 6 | 316 | 3.2 | 9.7 | 0.00 | 0.00 | 0.00 | 51 | 1006.2 |
| 20260505022044 | 7 | 302 | 4.8 | 14.5 | 0.00 | 0.00 | 0.00 | 50 | 1006.1 |
| 20260505021601 | 7 | 331 | 3.2 | 14.5 | 0.00 | 0.00 | 0.00 | 50 | 1006.0 |
| 20260505021041 | 7 | 351 | 1.6 | 12.9 | 0.00 | 0.00 | 0.00 | 50 | 1005.9 |
| 20260505020541 | 7 | 290 | 1.6 | 12.9 | 0.00 | 0.00 | 0.00 | 49 | 1005.8 |
| 20260505020046 | 7 | 332 | 3.2 | 19.3 | 0.00 | 0.00 | 0.00 | 48 | 1005.8 |
| 20260505015539 | 7 | 332 | 4.8 | 20.9 | 0.00 | 0.00 | 0.00 | 48 | 1005.7 |
| 20260505015138 | 7 | 302 | 4.8 | 20.9 | 0.00 | 0.00 | 0.00 | 48 | 1005.7 |
| 20260505014539 | 7 | 5 | 3.2 | 19.3 | 0.00 | 0.00 | 0.00 | 47 | 1005.6 |
| 20260505014037 | 7 | 300 | 6.4 | 19.3 | 0.00 | 0.00 | 0.00 | 47 | 1005.6 |
| 20260505013540 | 7 | 302 | 6.4 | 19.3 | 0.00 | 0.00 | 0.00 | 47 | 1005.5 |
| 20260505013035 | 7 | 341 | 3.2 | 12.9 | 0.00 | 0.00 | 0.00 | 47 | 1005.5 |
| 20260505012534 | 7 | 340 | 1.6 | 17.7 | 0.00 | 0.00 | 0.00 | 46 | 1005.4 |
| 20260505012033 | 7 | 333 | 6.4 | 19.3 | 0.00 | 0.00 | 0.00 | 45 | 1005.2 |
| 20260505011544 | 7 | 280 | 6.4 | 19.3 | 0.00 | 0.00 | 0.00 | 45 | 1005.3 |
| 20260505011030 | 7 | 309 | 4.8 | 20.9 | 0.00 | 0.00 | 0.00 | 45 | 1005.1 |
| 20260505010532 | 8 | 304 | 8.0 | 27.4 | 0.00 | 0.00 | 0.00 | 44 | 1005.1 |
| 20260505010029 | 8 | 340 | 9.7 | 27.4 | 0.00 | 0.00 | 0.00 | 43 | 1005.0 |
| 20260505005530 | 8 | 298 | 8.0 | 27.4 | 0.00 | 0.00 | 0.00 | 43 | 1004.9 |
| 20260505005028 | 8 | 312 | 9.7 | 27.4 | 0.00 | 0.00 | 0.00 | 43 | 1004.9 |
| 20260505004538 | 8 | 318 | 3.2 | 14.5 | 0.00 | 0.00 | 0.00 | 44 | 1004.9 |
| 20260505004027 | 8 | 341 | 3.2 | 14.5 | 0.00 | 0.00 | 0.00 | 45 | 1005.0 |
| 20260505003528 | 8 | 345 | 4.8 | 20.9 | 0.00 | 0.00 | 0.00 | 44 | 1004.9 |
| 20260505003028 | 8 | 333 | 11.3 | 20.9 | 0.00 | 0.00 | 0.00 | 44 | 1004.9 |
| 20260505002527 | 8 | 339 | 9.7 | 20.9 | 0.00 | 0.00 | 0.00 | 44 | 1004.9 |
| 20260505002028 | 8 | 50 | 9.7 | 24.1 | 0.00 | 0.00 | 0.00 | 44 | 1004.9 |
| 20260505001525 | 8 | 4 | 8.0 | 24.1 | 0.00 | 0.00 | 0.00 | 44 | 1004.9 |
| 20260505001024 | 8 | 339 | 6.4 | 30.6 | 0.00 | 0.00 | 0.00 | 45 | 1004.8 |
| 20260505000524 | 8 | 337 | 9.7 | 30.6 | 0.00 | 0.00 | 0.00 | 44 | 1004.8 |
| 20260505000023 | 8 | 351 | 6.4 | 22.5 | 0.00 | 0.00 | 0.00 | 46 | 1004.8 |
| 20260504235523 | 8 | 316 | 6.4 | 29.0 | 0.00 | 0.00 | 0.00 | 47 | 1004.8 |
| 20260504235023 | 8 | 312 | 6.4 | 33.8 | 0.00 | 0.00 | 0.00 | 46 | 1004.7 |
| 20260504234520 | 8 | 9 | 16.1 | 33.8 | 0.00 | 0.00 | 0.00 | 45 | 1004.7 |
| 20260504234019 | 8 | 287 | 11.3 | 37.0 | 0.00 | 0.00 | 0.00 | 45 | 1004.5 |
| 20260504233519 | 9 | 295 | 16.1 | 37.0 | 0.00 | 0.00 | 0.00 | 44 | 1004.6 |
| 20260504233018 | 9 | 14 | 9.7 | 32.2 | 0.00 | 0.00 | 0.00 | 45 | 1004.5 |
| 20260504232516 | 9 | 333 | 14.5 | 32.2 | 0.00 | 0.00 | 0.00 | 44 | 1004.3 |
| 20260504232015 | 9 | 20 | 14.5 | 25.7 | 0.00 | 0.00 | 0.00 | 44 | 1004.1 |
| 20260504231515 | 9 | 12 | 11.3 | 29.0 | 0.00 | 0.00 | 0.00 | 44 | 1004.2 |
| 20260504231015 | 9 | 339 | 12.9 | 30.6 | 0.00 | 0.00 | 0.00 | 44 | 1004.1 |
| 20260504230512 | 10 | 18 | 12.9 | 24.1 | 0.00 | 0.00 | 0.00 | 43 | 1004.0 |
| 20260504230012 | 10 | 312 | 12.9 | 0.0 | 0.00 | 0.00 | 0.00 | 43 | 1003.9 |
| 20260504225512 | 10 | 298 | 17.7 | 35.4 | 0.00 | 0.00 | 0.00 | 42 | 1003.9 |
| 20260504225011 | 10 | 335 | 11.3 | 32.2 | 0.00 | 0.00 | 0.00 | 42 | 1003.8 |
| 20260504224510 | 10 | 307 | 9.7 | 32.2 | 0.00 | 0.00 | 0.00 | 43 | 1003.6 |
| 20260504224009 | 10 | 25 | 9.7 | 25.7 | 0.00 | 0.00 | 0.00 | 42 | 1003.6 |
| 20260504223508 | 10 | 349 | 12.9 | 30.6 | 0.00 | 0.00 | 0.00 | 41 | 1003.5 |
| 20260504223007 | 10 | 333 | 16.1 | 30.6 | 0.00 | 0.00 | 0.00 | 41 | 1003.4 |
| 20260504222506 | 10 | 343 | 11.3 | 22.5 | 0.00 | 0.00 | 0.00 | 42 | 1003.3 |
| 20260504222106 | 10 | 276 | 9.7 | 25.7 | 0.00 | 0.00 | 0.00 | 41 | 1003.2 |
| 20260504221504 | 11 | 311 | 9.7 | 30.6 | 0.00 | 0.00 | 0.00 | 42 | 1003.0 |
| 20260504221004 | 10 | 30 | 8.0 | 30.6 | 0.00 | 0.00 | 0.00 | 43 | 1003.0 |
| 20260504220505 | 10 | 311 | 14.5 | 30.6 | 0.00 | 0.00 | 0.00 | 42 | 1003.0 |
| 20260504220003 | 10 | 253 | 9.7 | 38.6 | 0.00 | 0.00 | 0.00 | 43 | 1003.0 |
| 20260504215503 | 11 | 343 | 12.9 | 33.8 | 0.00 | 0.00 | 0.00 | 40 | 1003.0 |
| 20260504215003 | 10 | 4 | 9.7 | 27.4 | 0.00 | 0.00 | 0.00 | 42 | 1002.9 |
| 20260504214502 | 10 | 349 | 8.0 | 27.4 | 0.00 | 0.00 | 0.00 | 42 | 1002.8 |
| 20260504214001 | 11 | 25 | 11.3 | 27.4 | 0.00 | 0.00 | 0.00 | 42 | 1002.9 |
| 20260504213601 | 11 | 318 | 9.7 | 32.2 | 0.00 | 0.00 | 0.00 | 44 | 1002.7 |
| 20260504213126 | 11 | 255 | 9.7 | 35.4 | 0.00 | 0.00 | 0.00 | 43 | 1002.7 |
| 20260504212602 | 11 | 341 | 14.5 | 35.4 | 0.00 | 0.00 | 0.00 | 43 | 1002.6 |
| 20260504212059 | 11 | 345 | 12.9 | 32.2 | 0.00 | 0.00 | 0.00 | 44 | 1002.5 |
| 20260504211557 | 11 | 315 | 11.3 | 35.4 | 0.00 | 0.00 | 0.00 | 45 | 1002.5 |
| 20260504211056 | 11 | 335 | 14.5 | 35.4 | 0.00 | 0.00 | 0.00 | 44 | 1002.5 |
| 20260504210556 | 11 | 357 | 16.1 | 29.0 | 0.00 | 0.00 | 0.00 | 44 | 1002.3 |
| 20260504210100 | 11 | 337 | 14.5 | 30.6 | 0.00 | 0.00 | 0.00 | 43 | 1002.3 |
| 20260504205553 | 11 | 309 | 12.9 | 30.6 | 0.00 | 0.00 | 0.00 | 45 | 1002.3 |
| 20260504205054 | 11 | 297 | 11.3 | 29.0 | 0.00 | 0.00 | 0.00 | 42 | 1002.2 |
| 20260504204603 | 12 | 355 | 12.9 | 32.2 | 0.00 | 0.00 | 0.00 | 43 | 1002.1 |
| 20260504204052 | 11 | 292 | 12.9 | 32.2 | 0.00 | 0.00 | 0.00 | 44 | 1002.0 |
| 20260504203554 | 11 | 267 | 17.7 | 32.2 | 0.00 | 0.00 | 0.00 | 43 | 1002.0 |
| 20260504203052 | 11 | 350 | 11.3 | 29.0 | 0.00 | 0.00 | 0.00 | 45 | 1001.9 |
| 20260504202552 | 11 | 345 | 11.3 | 29.0 | 0.00 | 0.00 | 0.00 | 45 | 1002.0 |
| 20260504202052 | 11 | 332 | 8.0 | 29.0 | 0.00 | 0.00 | 0.00 | 45 | 1001.9 |
| 20260504201550 | 11 | 334 | 16.1 | 27.4 | 0.00 | 0.00 | 0.00 | 44 | 1001.9 |
| 20260504201049 | 12 | 343 | 11.3 | 27.4 | 0.00 | 0.00 | 0.00 | 43 | 1001.8 |
| 20260504200551 | 12 | 25 | 11.3 | 25.7 | 0.00 | 0.00 | 0.00 | 43 | 1001.8 |
| 20260504200053 | 12 | 318 | 11.3 | 29.0 | 0.00 | 0.00 | 0.00 | 45 | 1001.7 |
| 20260504195548 | 12 | 292 | 14.5 | 32.2 | 0.00 | 0.00 | 0.00 | 44 | 1001.6 |
| 20260504195048 | 12 | 314 | 16.1 | 33.8 | 0.00 | 0.00 | 0.00 | 42 | 1001.6 |
| 20260504194547 | 12 | 338 | 16.1 | 33.8 | 0.00 | 0.00 | 0.00 | 42 | 1001.5 |
| 20260504194046 | 12 | 20 | 12.9 | 35.4 | 0.00 | 0.00 | 0.00 | 43 | 1001.5 |
| 20260504193548 | 12 | 307 | 14.5 | 37.0 | 0.00 | 0.00 | 0.00 | 44 | 1001.5 |
| 20260504193045 | 12 | 312 | 14.5 | 35.4 | 0.00 | 0.00 | 0.00 | 42 | 1001.3 |
| 20260504192545 | 12 | 345 | 12.9 | 32.2 | 0.00 | 0.00 | 0.00 | 43 | 1001.3 |
| 20260504192044 | 12 | 311 | 12.9 | 32.2 | 0.00 | 0.00 | 0.00 | 43 | 1001.3 |
| 20260504191543 | 12 | 5 | 6.4 | 41.8 | 0.00 | 0.00 | 0.00 | 44 | 1001.1 |
| 20260504191043 | 12 | 300 | 16.1 | 41.8 | 0.00 | 0.00 | 0.00 | 43 | 1000.9 |
| 20260504190542 | 12 | 14 | 12.9 | 33.8 | 0.00 | 0.00 | 0.00 | 43 | 1000.8 |
| 20260504190041 | 13 | 347 | 12.9 | 41.8 | 0.00 | 0.00 | 0.00 | 44 | 1000.9 |
| 20260504185541 | 12 | 333 | 14.5 | 41.8 | 0.00 | 0.00 | 0.00 | 44 | 1000.8 |
| 20260504185041 | 12 | 325 | 16.1 | 38.6 | 0.00 | 0.00 | 0.00 | 43 | 1000.8 |